| time (UTC) | temp F | wind direction | speed MPH | gust MPH | rain 1hr in | rain 24hr in | rain mn in | humidity % | barometer mb |
| 20260905051021 | 73 | 42 | 0.0 | 0.0 | 0.00 | 0.00 | 0.00 | 80 | 971.4 |
| 20260905050515 | 73 | 42 | 0.0 | 0.0 | 0.00 | 0.00 | 0.00 | 80 | 971.4 |
| 20260905050009 | 73 | 42 | 0.0 | 0.0 | 0.00 | 0.00 | 0.00 | 80 | 971.4 |
| 20260905044957 | 73 | 42 | 0.0 | 0.0 | 0.00 | 0.00 | 0.00 | 81 | 971.4 |
| 20260905044451 | 73 | 42 | 0.0 | 0.0 | 0.00 | 0.00 | 0.00 | 81 | 971.6 |
| 20260905043945 | 73 | 42 | 0.0 | 0.0 | 0.00 | 0.00 | 0.00 | 81 | 971.6 |
| 20260905043440 | 73 | 42 | 0.0 | 0.0 | 0.00 | 0.00 | 0.00 | 81 | 971.5 |
| 20260905042934 | 74 | 42 | 0.0 | 0.0 | 0.00 | 0.00 | 0.00 | 82 | 971.5 |
| 20260905042429 | 74 | 42 | 0.0 | 0.0 | 0.00 | 0.00 | 0.00 | 82 | 971.4 |
| 20260905041921 | 74 | 42 | 0.0 | 0.0 | 0.00 | 0.00 | 0.00 | 82 | 971.4 |
| 20260905041415 | 74 | 42 | 0.0 | 0.0 | 0.00 | 0.00 | 0.00 | 82 | 971.4 |
| 20260905040909 | 74 | 42 | 0.0 | 0.0 | 0.00 | 0.00 | 0.00 | 82 | 971.2 |
| 20260905040403 | 74 | 42 | 0.0 | 0.0 | 0.00 | 0.00 | 0.00 | 82 | 971.3 |
| 20260905035856 | 74 | 42 | 0.0 | 0.0 | 0.00 | 0.00 | 0.00 | 82 | 971.2 |
| 20260905034845 | 74 | 42 | 0.0 | 0.0 | 0.00 | 0.00 | 0.00 | 82 | 971.2 |
| 20260905034339 | 74 | 42 | 0.0 | 0.0 | 0.00 | 0.00 | 0.00 | 82 | 971.0 |
| 20260905033833 | 74 | 42 | 0.0 | 0.0 | 0.00 | 0.00 | 0.00 | 83 | 970.9 |
| 20260905033328 | 74 | 42 | 0.0 | 0.0 | 0.00 | 0.00 | 0.00 | 83 | 970.8 |
| 20260905032315 | 75 | 42 | 0.0 | 0.0 | 0.00 | 0.00 | 0.00 | 83 | 970.9 |
| 20260905031810 | 75 | 42 | 0.0 | 0.0 | 0.00 | 0.00 | 0.00 | 83 | 970.8 |
| 20260905030757 | 75 | 42 | 0.0 | 0.0 | 0.00 | 0.00 | 0.00 | 83 | 970.7 |
| 20260905030252 | 75 | 42 | 0.0 | 0.0 | 0.00 | 0.00 | 0.00 | 83 | 970.8 |
| 20260905025746 | 75 | 42 | 0.0 | 0.0 | 0.00 | 0.00 | 0.00 | 84 | 970.7 |
| 20260905025238 | 75 | 42 | 0.0 | 0.0 | 0.00 | 0.00 | 0.00 | 84 | 970.7 |
| 20260905024227 | 75 | 42 | 0.0 | 0.0 | 0.00 | 0.00 | 0.00 | 85 | 970.6 |
| 20260905023721 | 75 | 42 | 0.0 | 0.0 | 0.00 | 0.00 | 0.00 | 85 | 970.6 |
| 20260905023216 | 76 | 42 | 0.0 | 0.0 | 0.00 | 0.00 | 0.00 | 85 | 970.5 |
| 20260905022709 | 76 | 42 | 0.0 | 0.0 | 0.00 | 0.00 | 0.00 | 85 | 970.5 |
| 20260905022203 | 76 | 42 | 0.0 | 0.0 | 0.00 | 0.00 | 0.00 | 85 | 970.5 |
| 20260905021656 | 76 | 42 | 0.0 | 0.0 | 0.00 | 0.00 | 0.00 | 85 | 970.6 |
| 20260905021151 | 76 | 42 | 0.0 | 0.0 | 0.00 | 0.00 | 0.00 | 85 | 970.7 |
| 20260905020139 | 76 | 42 | 0.0 | 0.0 | 0.00 | 0.00 | 0.00 | 85 | 970.8 |
| 20260905015633 | 76 | 42 | 0.0 | 0.0 | 0.00 | 0.00 | 0.00 | 85 | 970.8 |
| 20260905015127 | 76 | 42 | 0.0 | 0.0 | 0.00 | 0.00 | 0.00 | 86 | 970.8 |
| 20260905014621 | 76 | 42 | 0.0 | 0.0 | 0.00 | 0.00 | 0.00 | 86 | 970.7 |
| 20260905014115 | 77 | 42 | 0.0 | 0.0 | 0.00 | 0.00 | 0.00 | 86 | 970.7 |
| 20260905013610 | 77 | 42 | 0.0 | 0.0 | 0.00 | 0.00 | 0.00 | 85 | 970.7 |
| 20260905012557 | 77 | 42 | 0.0 | 0.0 | 0.00 | 0.00 | 0.00 | 85 | 970.8 |
| 20260905011545 | 78 | 42 | 0.0 | 0.0 | 0.00 | 0.00 | 0.00 | 85 | 970.8 |
| 20260905011039 | 78 | 42 | 0.0 | 0.0 | 0.00 | 0.00 | 0.00 | 85 | 970.9 |
| 20260905010532 | 78 | 42 | 0.0 | 0.0 | 0.00 | 0.00 | 0.00 | 85 | 970.9 |
| 20260905010027 | 78 | 42 | 0.0 | 0.0 | 0.00 | 0.00 | 0.00 | 85 | 971.0 |
| 20260905005522 | 78 | 42 | 0.0 | 0.0 | 0.00 | 0.00 | 0.00 | 85 | 971.0 |
| 20260905005015 | 78 | 42 | 0.0 | 0.0 | 0.00 | 0.00 | 0.00 | 85 | 971.0 |
| 20260905004509 | 78 | 42 | 0.0 | 0.0 | 0.00 | 0.00 | 0.00 | 85 | 971.1 |
| 20260905004003 | 78 | 42 | 0.0 | 0.0 | 0.00 | 0.00 | 0.00 | 85 | 971.1 |
| 20260905003457 | 78 | 42 | 0.0 | 0.0 | 0.00 | 0.00 | 0.00 | 85 | 971.1 |
| 20260905002950 | 79 | 42 | 0.0 | 0.0 | 0.00 | 0.00 | 0.00 | 85 | 971.0 |
| 20260905002444 | 79 | 42 | 0.0 | 0.0 | 0.00 | 0.00 | 0.00 | 85 | 971.0 |
| 20260905001433 | 79 | 42 | 0.0 | 0.0 | 0.00 | 0.00 | 0.00 | 85 | 971.0 |
| 20260905000420 | 80 | 42 | 0.0 | 0.0 | 0.00 | 0.00 | 0.00 | 85 | 971.0 |
| 20260904235914 | 81 | 42 | 0.0 | 0.0 | 0.00 | 0.00 | 0.00 | 84 | 970.9 |
| 20260904234903 | 82 | 42 | 0.0 | 0.0 | 0.00 | 0.00 | 0.00 | 83 | 970.9 |
| 20260904233851 | 83 | 42 | 0.0 | 0.0 | 0.00 | 0.00 | 0.00 | 82 | 971.0 |
| 20260904232839 | 84 | 42 | 0.0 | 0.0 | 0.00 | 0.00 | 0.00 | 81 | 970.9 |
| 20260904232332 | 84 | 42 | 0.0 | 0.0 | 0.00 | 0.00 | 0.00 | 80 | 970.9 |
| 20260904231829 | 85 | 42 | 0.0 | 0.0 | 0.00 | 0.00 | 0.00 | 79 | 971.0 |
| 20260904231323 | 85 | 42 | 0.0 | 0.0 | 0.00 | 0.00 | 0.00 | 78 | 970.8 |
| 20260904230815 | 85 | 42 | 0.0 | 2.0 | 0.00 | 0.00 | 0.00 | 78 | 970.8 |
| 20260904230309 | 86 | 42 | 0.0 | 2.0 | 0.00 | 0.00 | 0.00 | 77 | 970.7 |
| 20260904225257 | 86 | 42 | 0.0 | 3.0 | 0.00 | 0.00 | 0.00 | 76 | 970.7 |
| 20260904224751 | 86 | 42 | 0.0 | 3.0 | 0.00 | 0.00 | 0.00 | 74 | 970.5 |
| 20260904224245 | 87 | 55 | 0.0 | 3.0 | 0.00 | 0.00 | 0.00 | 74 | 970.6 |
| 20260904223738 | 87 | 55 | 1.0 | 3.0 | 0.00 | 0.00 | 0.00 | 73 | 970.6 |
| 20260904223232 | 88 | 57 | 1.0 | 4.0 | 0.00 | 0.00 | 0.00 | 71 | 970.5 |
| 20260904222728 | 88 | 53 | 1.0 | 4.0 | 0.00 | 0.00 | 0.00 | 71 | 970.5 |
| 20260904222221 | 88 | 53 | 1.0 | 5.0 | 0.00 | 0.00 | 0.00 | 71 | 970.5 |
| 20260904221715 | 89 | 67 | 1.0 | 5.0 | 0.00 | 0.00 | 0.00 | 70 | 970.6 |
| 20260904220703 | 89 | 53 | 2.0 | 5.0 | 0.00 | 0.00 | 0.00 | 69 | 971.0 |
| 20260904220158 | 89 | 34 | 2.0 | 7.0 | 0.00 | 0.00 | 0.00 | 71 | 971.0 |
| 20260904215659 | 89 | 34 | 1.0 | 7.0 | 0.00 | 0.00 | 0.00 | 70 | 970.8 |
| 20260904215157 | 88 | 26 | 2.0 | 5.0 | 0.00 | 0.00 | 0.00 | 71 | 970.8 |
| 20260904214658 | 87 | 79 | 3.0 | 8.0 | 0.00 | 0.00 | 0.00 | 70 | 970.8 |
| 20260904214158 | 87 | 39 | 3.0 | 8.0 | 0.00 | 0.00 | 0.00 | 72 | 970.9 |
| 20260904213658 | 87 | 71 | 2.0 | 7.0 | 0.00 | 0.00 | 0.00 | 72 | 970.7 |
| 20260904213158 | 87 | 55 | 2.0 | 7.0 | 0.00 | 0.00 | 0.00 | 72 | 970.6 |
| 20260904212658 | 87 | 105 | 3.0 | 10.0 | 0.00 | 0.00 | 0.00 | 71 | 970.7 |
| 20260904212158 | 88 | 84 | 4.0 | 10.0 | 0.00 | 0.00 | 0.00 | 70 | 970.7 |
| 20260904211657 | 89 | 74 | 6.0 | 14.0 | 0.00 | 0.00 | 0.00 | 70 | 970.7 |
| 20260904211158 | 92 | 30 | 5.0 | 14.0 | 0.00 | 0.00 | 0.00 | 66 | 970.8 |
| 20260904210657 | 94 | 28 | 4.0 | 13.0 | 0.00 | 0.00 | 0.00 | 63 | 970.6 |
| 20260904210158 | 95 | 67 | 3.0 | 13.0 | 0.00 | 0.00 | 0.00 | 61 | 970.5 |
| 20260904205656 | 97 | 292 | 2.0 | 8.0 | 0.00 | 0.00 | 0.00 | 56 | 970.3 |
| 20260904205158 | 98 | 250 | 2.0 | 5.0 | 0.00 | 0.00 | 0.00 | 57 | 970.3 |
| 20260904204655 | 98 | 183 | 2.0 | 8.0 | 0.00 | 0.00 | 0.00 | 58 | 970.4 |
| 20260904204155 | 97 | 175 | 2.0 | 8.0 | 0.00 | 0.00 | 0.00 | 55 | 970.3 |
| 20260904203655 | 97 | 134 | 3.0 | 8.0 | 0.00 | 0.00 | 0.00 | 58 | 970.3 |
| 20260904203154 | 97 | 174 | 3.0 | 8.0 | 0.00 | 0.00 | 0.00 | 55 | 970.3 |
| 20260904202653 | 97 | 304 | 1.0 | 8.0 | 0.00 | 0.00 | 0.00 | 56 | 970.4 |
| 20260904201654 | 96 | 294 | 3.0 | 9.0 | 0.00 | 0.00 | 0.00 | 55 | 970.5 |
| 20260904201155 | 96 | 281 | 3.0 | 9.0 | 0.00 | 0.00 | 0.00 | 55 | 970.7 |
| 20260904200653 | 97 | 304 | 2.0 | 7.0 | 0.00 | 0.00 | 0.00 | 57 | 970.6 |
| 20260904200150 | 97 | 300 | 2.0 | 7.0 | 0.00 | 0.00 | 0.00 | 56 | 970.5 |
| 20260904195649 | 97 | 355 | 2.0 | 10.0 | 0.00 | 0.00 | 0.00 | 54 | 970.6 |
| 20260904195151 | 97 | 161 | 2.0 | 10.0 | 0.00 | 0.00 | 0.00 | 61 | 970.6 |
| 20260904194649 | 97 | 277 | 2.0 | 7.0 | 0.00 | 0.00 | 0.00 | 58 | 970.6 |
| 20260904194150 | 97 | 209 | 2.0 | 8.0 | 0.00 | 0.00 | 0.00 | 59 | 970.6 |
| 20260904193649 | 97 | 349 | 3.0 | 9.0 | 0.00 | 0.00 | 0.00 | 61 | 970.5 |
| 20260904193150 | 97 | 312 | 2.0 | 9.0 | 0.00 | 0.00 | 0.00 | 58 | 970.6 |
| 20260904192649 | 97 | 294 | 2.0 | 8.0 | 0.00 | 0.00 | 0.00 | 60 | 970.9 |
| 20260904192149 | 97 | 294 | 2.0 | 8.0 | 0.00 | 0.00 | 0.00 | 61 | 971.0 |
| 20260904191645 | 96 | 13 | 2.0 | 8.0 | 0.00 | 0.00 | 0.00 | 59 | 971.2 |
| 20260904191146 | 96 | 148 | 2.0 | 8.0 | 0.00 | 0.00 | 0.00 | 59 | 971.4 |
| 20260904190646 | 96 | 132 | 2.0 | 8.0 | 0.00 | 0.00 | 0.00 | 59 | 971.4 |
| 20260904190145 | 96 | 190 | 3.0 | 9.0 | 0.00 | 0.00 | 0.00 | 62 | 971.5 |
| 20260904185147 | 96 | 165 | 2.0 | 6.0 | 0.00 | 0.00 | 0.00 | 60 | 971.6 |
| 20260904184645 | 96 | 92 | 2.0 | 6.0 | 0.00 | 0.00 | 0.00 | 59 | 971.6 |
| 20260904184146 | 96 | 80 | 2.0 | 6.0 | 0.00 | 0.00 | 0.00 | 59 | 971.7 |
| 20260904183648 | 96 | 159 | 2.0 | 6.0 | 0.00 | 0.00 | 0.00 | 60 | 971.7 |
| 20260904183140 | 95 | 94 | 1.0 | 5.0 | 0.00 | 0.00 | 0.00 | 62 | 971.7 |
| 20260904182635 | 95 | 306 | 1.0 | 5.0 | 0.00 | 0.00 | 0.00 | 65 | 971.9 |
| 20260904182128 | 94 | 65 | 0.0 | 2.0 | 0.00 | 0.00 | 0.00 | 68 | 972.1 |
| 20260904181622 | 93 | 65 | 1.0 | 4.0 | 0.00 | 0.00 | 0.00 | 68 | 972.1 |
| 20260904181116 | 92 | 65 | 1.0 | 5.0 | 0.00 | 0.00 | 0.00 | 65 | 972.1 |
| 20260904180610 | 93 | 355 | 2.0 | 8.0 | 0.00 | 0.00 | 0.00 | 65 | 972.2 |
| 20260904180104 | 93 | 348 | 2.0 | 9.0 | 0.00 | 0.00 | 0.00 | 65 | 972.3 |
| 20260904175604 | 93 | 11 | 1.0 | 7.0 | 0.00 | 0.00 | 0.00 | 68 | 972.2 |
| 20260904175104 | 92 | 30 | 1.0 | 4.0 | 0.00 | 0.00 | 0.00 | 69 | 972.3 |
| 20260904174603 | 92 | 32 | 1.0 | 4.0 | 0.00 | 0.00 | 0.00 | 68 | 972.3 |
| 20260904174103 | 91 | 312 | 1.0 | 3.0 | 0.00 | 0.00 | 0.00 | 69 | 972.3 |
| 20260904173102 | 91 | 316 | 0.0 | 3.0 | 0.00 | 0.00 | 0.00 | 72 | 972.5 |
| 20260904172600 | 92 | 316 | 0.0 | 3.0 | 0.00 | 0.00 | 0.00 | 68 | 972.6 |
| 20260904171600 | 92 | 316 | 1.0 | 5.0 | 0.00 | 0.00 | 0.00 | 69 | 972.7 |
| 20260904171059 | 92 | 229 | 1.0 | 4.0 | 0.00 | 0.00 | 0.00 | 67 | 972.7 |
| 20260904170601 | 92 | 311 | 2.0 | 5.0 | 0.00 | 0.00 | 0.00 | 68 | 972.8 |
| 20260904170057 | 92 | 311 | 3.0 | 5.0 | 0.00 | 0.00 | 0.00 | 67 | 972.9 |
| 20260904165557 | 92 | 325 | 2.0 | 5.0 | 0.00 | 0.00 | 0.00 | 67 | 972.9 |
| 20260904164556 | 92 | 326 | 1.0 | 5.0 | 0.00 | 0.00 | 0.00 | 66 | 972.9 |
| 20260904164055 | 93 | 326 | 2.0 | 5.0 | 0.00 | 0.00 | 0.00 | 67 | 973.1 |
| 20260904163055 | 92 | 126 | 1.0 | 6.0 | 0.00 | 0.00 | 0.00 | 66 | 973.1 |
| 20260904162548 | 92 | 329 | 1.0 | 5.0 | 0.00 | 0.00 | 0.00 | 67 | 973.3 |
| 20260904162042 | 92 | 329 | 2.0 | 5.0 | 0.00 | 0.00 | 0.00 | 69 | 973.3 |
| 20260904161535 | 92 | 227 | 2.0 | 5.0 | 0.00 | 0.00 | 0.00 | 68 | 973.4 |
| 20260904161028 | 92 | 338 | 1.0 | 5.0 | 0.00 | 0.00 | 0.00 | 70 | 973.3 |
| 20260904160017 | 91 | 338 | 1.0 | 4.0 | 0.00 | 0.00 | 0.00 | 70 | 973.4 |
| 20260904155005 | 91 | 338 | 2.0 | 4.0 | 0.00 | 0.00 | 0.00 | 75 | 973.4 |
| 20260904154459 | 91 | 338 | 1.0 | 4.0 | 0.00 | 0.00 | 0.00 | 73 | 973.4 |
| 20260904153952 | 91 | 88 | 1.0 | 4.0 | 0.00 | 0.00 | 0.00 | 74 | 973.5 |
| 20260904153447 | 90 | 102 | 1.0 | 4.0 | 0.00 | 0.00 | 0.00 | 73 | 973.5 |
| 20260904152435 | 90 | 318 | 1.0 | 3.0 | 0.00 | 0.00 | 0.00 | 74 | 973.5 |
| 20260904151929 | 90 | 318 | 1.0 | 4.0 | 0.00 | 0.00 | 0.00 | 74 | 973.5 |
| 20260904151422 | 89 | 318 | 1.0 | 4.0 | 0.00 | 0.00 | 0.00 | 75 | 973.5 |
| 20260904150917 | 89 | 319 | 1.0 | 3.0 | 0.00 | 0.00 | 0.00 | 77 | 973.5 |
| 20260904150411 | 89 | 319 | 1.0 | 3.0 | 0.00 | 0.00 | 0.00 | 74 | 973.5 |
| 20260904145905 | 89 | 319 | 1.0 | 3.0 | 0.00 | 0.00 | 0.00 | 75 | 973.5 |
| 20260904145359 | 89 | 319 | 0.0 | 3.0 | 0.00 | 0.00 | 0.00 | 76 | 973.5 |
| 20260904144853 | 89 | 319 | 0.0 | 1.0 | 0.00 | 0.00 | 0.00 | 77 | 973.6 |
| 20260904144348 | 88 | 319 | 0.0 | 1.0 | 0.00 | 0.00 | 0.00 | 79 | 973.6 |
| 20260904143841 | 87 | 319 | 0.0 | 3.0 | 0.00 | 0.00 | 0.00 | 78 | 973.6 |
| 20260904143335 | 87 | 319 | 0.0 | 3.0 | 0.00 | 0.00 | 0.00 | 79 | 973.5 |
| 20260904142828 | 86 | 319 | 0.0 | 3.0 | 0.00 | 0.00 | 0.00 | 81 | 973.6 |
| 20260904141817 | 85 | 319 | 0.0 | 2.0 | 0.00 | 0.00 | 0.00 | 83 | 973.5 |
| 20260904140805 | 83 | 319 | 0.0 | 2.0 | 0.00 | 0.00 | 0.00 | 84 | 973.5 |
| 20260904135753 | 82 | 319 | 1.0 | 3.0 | 0.00 | 0.00 | 0.00 | 84 | 973.6 |
| 20260904135247 | 81 | 319 | 1.0 | 3.0 | 0.00 | 0.00 | 0.00 | 83 | 973.5 |
| 20260904134741 | 80 | 319 | 1.0 | 5.0 | 0.00 | 0.00 | 0.00 | 80 | 973.5 |
| 20260904134234 | 79 | 319 | 1.0 | 5.0 | 0.00 | 0.00 | 0.00 | 76 | 973.4 |
| 20260904133729 | 78 | 131 | 0.0 | 1.0 | 0.00 | 0.00 | 0.00 | 69 | 973.3 |
| 20260904133223 | 77 | 131 | 0.0 | 1.0 | 0.00 | 0.00 | 0.00 | 67 | 973.3 |
| 20260904132210 | 76 | 131 | 0.0 | 0.0 | 0.00 | 0.00 | 0.00 | 66 | 973.4 |
| 20260904131158 | 75 | 131 | 0.0 | 0.0 | 0.00 | 0.00 | 0.00 | 66 | 973.4 |
| 20260904130146 | 75 | 131 | 0.0 | 0.0 | 0.00 | 0.00 | 0.00 | 66 | 973.3 |
| 20260904124629 | 72 | 131 | 0.0 | 0.0 | 0.00 | 0.00 | 0.00 | 67 | 973.3 |
| 20260904124123 | 71 | 131 | 0.0 | 0.0 | 0.00 | 0.00 | 0.00 | 67 | 973.2 |
| 20260904123617 | 71 | 131 | 0.0 | 0.0 | 0.00 | 0.00 | 0.00 | 67 | 973.2 |
| 20260904123110 | 70 | 131 | 0.0 | 0.0 | 0.00 | 0.00 | 0.00 | 67 | 973.3 |
| 20260904122605 | 70 | 131 | 0.0 | 0.0 | 0.00 | 0.00 | 0.00 | 67 | 973.3 |
| 20260904122059 | 69 | 131 | 0.0 | 0.0 | 0.00 | 0.00 | 0.00 | 67 | 973.3 |
| 20260904121553 | 69 | 131 | 0.0 | 0.0 | 0.00 | 0.00 | 0.00 | 67 | 973.1 |
| 20260904121047 | 69 | 131 | 0.0 | 0.0 | 0.00 | 0.00 | 0.00 | 68 | 973.1 |
| 20260904120541 | 69 | 131 | 0.0 | 0.0 | 0.00 | 0.00 | 0.00 | 67 | 973.2 |
| 20260904120035 | 69 | 131 | 0.0 | 0.0 | 0.00 | 0.00 | 0.00 | 68 | 973.1 |
| 20260904115529 | 68 | 131 | 0.0 | 0.0 | 0.00 | 0.00 | 0.00 | 68 | 973.2 |
| 20260904115023 | 68 | 131 | 0.0 | 0.0 | 0.00 | 0.00 | 0.00 | 68 | 973.3 |
| 20260904114516 | 68 | 131 | 0.0 | 0.0 | 0.00 | 0.00 | 0.00 | 68 | 973.4 |
| 20260904114011 | 68 | 131 | 0.0 | 0.0 | 0.00 | 0.00 | 0.00 | 68 | 973.3 |
| 20260904113504 | 68 | 131 | 0.0 | 0.0 | 0.00 | 0.00 | 0.00 | 68 | 973.2 |
| 20260904112959 | 68 | 131 | 0.0 | 0.0 | 0.00 | 0.00 | 0.00 | 68 | 973.2 |
| 20260904112454 | 68 | 131 | 0.0 | 0.0 | 0.00 | 0.00 | 0.00 | 68 | 973.2 |
| 20260904111946 | 68 | 131 | 0.0 | 0.0 | 0.00 | 0.00 | 0.00 | 68 | 973.2 |
| 20260904111441 | 67 | 131 | 0.0 | 0.0 | 0.00 | 0.00 | 0.00 | 68 | 973.2 |
| 20260904110936 | 67 | 131 | 0.0 | 0.0 | 0.00 | 0.00 | 0.00 | 68 | 973.1 |
| 20260904105923 | 68 | 131 | 0.0 | 0.0 | 0.00 | 0.00 | 0.00 | 68 | 973.0 |
| 20260904105417 | 68 | 131 | 0.0 | 0.0 | 0.00 | 0.00 | 0.00 | 68 | 972.9 |
| 20260904104911 | 68 | 131 | 0.0 | 0.0 | 0.00 | 0.00 | 0.00 | 68 | 972.8 |
| 20260904104404 | 68 | 131 | 0.0 | 0.0 | 0.00 | 0.00 | 0.00 | 68 | 972.8 |
| 20260904103858 | 68 | 131 | 0.0 | 0.0 | 0.00 | 0.00 | 0.00 | 69 | 972.8 |
| 20260904103352 | 68 | 131 | 0.0 | 0.0 | 0.00 | 0.00 | 0.00 | 69 | 972.8 |
| 20260904102352 | 68 | 131 | 0.0 | 0.0 | 0.00 | 0.00 | 0.00 | 68 | 972.7 |
| 20260904101849 | 69 | 131 | 0.0 | 0.0 | 0.00 | 0.00 | 0.00 | 68 | 972.7 |
| 20260904101346 | 69 | 131 | 0.0 | 0.0 | 0.00 | 0.00 | 0.00 | 68 | 972.7 |
| 20260904100848 | 69 | 131 | 0.0 | 0.0 | 0.00 | 0.00 | 0.00 | 68 | 972.8 |
| 20260904095846 | 68 | 131 | 0.0 | 0.0 | 0.00 | 0.00 | 0.00 | 69 | 972.7 |
| 20260904095344 | 68 | 131 | 0.0 | 0.0 | 0.00 | 0.00 | 0.00 | 69 | 972.7 |
| 20260904094841 | 69 | 131 | 0.0 | 0.0 | 0.00 | 0.00 | 0.00 | 68 | 972.7 |
| 20260904093336 | 69 | 131 | 0.0 | 0.0 | 0.00 | 0.00 | 0.00 | 69 | 972.5 |
| 20260904092837 | 69 | 131 | 0.0 | 0.0 | 0.00 | 0.00 | 0.00 | 69 | 972.5 |
| 20260904092338 | 69 | 131 | 0.0 | 0.0 | 0.00 | 0.00 | 0.00 | 69 | 972.4 |
| 20260904091837 | 69 | 131 | 0.0 | 0.0 | 0.00 | 0.00 | 0.00 | 69 | 972.4 |
| 20260904091337 | 69 | 131 | 0.0 | 0.0 | 0.00 | 0.00 | 0.00 | 69 | 972.4 |
| 20260904090334 | 69 | 131 | 0.0 | 0.0 | 0.00 | 0.00 | 0.00 | 69 | 972.3 |
| 20260904085832 | 69 | 131 | 0.0 | 0.0 | 0.00 | 0.00 | 0.00 | 68 | 972.2 |
| 20260904085334 | 69 | 131 | 0.0 | 0.0 | 0.00 | 0.00 | 0.00 | 69 | 972.2 |
| 20260904084834 | 69 | 131 | 0.0 | 0.0 | 0.00 | 0.00 | 0.00 | 69 | 972.2 |
| 20260904084332 | 69 | 131 | 0.0 | 0.0 | 0.00 | 0.00 | 0.00 | 69 | 972.2 |
| 20260904083833 | 69 | 131 | 0.0 | 0.0 | 0.00 | 0.00 | 0.00 | 69 | 972.2 |
| 20260904083332 | 70 | 131 | 0.0 | 0.0 | 0.00 | 0.00 | 0.00 | 69 | 972.1 |
| 20260904082832 | 70 | 131 | 0.0 | 0.0 | 0.00 | 0.00 | 0.00 | 69 | 972.1 |
| 20260904081833 | 70 | 131 | 0.0 | 0.0 | 0.00 | 0.00 | 0.00 | 69 | 972.0 |
| 20260904080834 | 70 | 131 | 0.0 | 0.0 | 0.00 | 0.00 | 0.00 | 69 | 972.0 |
| 20260904080333 | 70 | 131 | 0.0 | 0.0 | 0.00 | 0.00 | 0.00 | 69 | 972.0 |
| 20260904075834 | 70 | 131 | 0.0 | 0.0 | 0.00 | 0.00 | 0.00 | 69 | 972.0 |
| 20260904075334 | 70 | 131 | 0.0 | 0.0 | 0.00 | 0.00 | 0.00 | 69 | 972.0 |
| 20260904074834 | 70 | 131 | 0.0 | 0.0 | 0.00 | 0.00 | 0.00 | 69 | 972.1 |
| 20260904074336 | 70 | 131 | 0.0 | 0.0 | 0.00 | 0.00 | 0.00 | 70 | 972.1 |
| 20260904073834 | 70 | 131 | 0.0 | 0.0 | 0.00 | 0.00 | 0.00 | 70 | 972.1 |
| 20260904073332 | 70 | 131 | 0.0 | 0.0 | 0.00 | 0.00 | 0.00 | 70 | 972.1 |
| 20260904072834 | 70 | 131 | 0.0 | 0.0 | 0.00 | 0.00 | 0.00 | 70 | 972.2 |
| 20260904072332 | 70 | 131 | 0.0 | 0.0 | 0.00 | 0.00 | 0.00 | 70 | 972.2 |
| 20260904071832 | 70 | 131 | 0.0 | 0.0 | 0.00 | 0.00 | 0.00 | 70 | 972.3 |
| 20260904071333 | 71 | 131 | 0.0 | 0.0 | 0.00 | 0.00 | 0.00 | 70 | 972.3 |
| 20260904070832 | 71 | 131 | 0.0 | 0.0 | 0.00 | 0.00 | 0.00 | 70 | 972.4 |
| 20260904065325 | 71 | 131 | 0.0 | 0.0 | 0.00 | 0.00 | 0.00 | 70 | 972.6 |
| 20260904063808 | 71 | 131 | 0.0 | 0.0 | 0.00 | 0.00 | 0.00 | 71 | 972.8 |
| 20260904063301 | 71 | 131 | 0.0 | 0.0 | 0.00 | 0.00 | 0.00 | 71 | 972.8 |
| 20260904062755 | 71 | 131 | 0.0 | 0.0 | 0.00 | 0.00 | 0.00 | 71 | 972.8 |
| 20260904061743 | 71 | 131 | 0.0 | 0.0 | 0.00 | 0.00 | 0.00 | 71 | 972.9 |
| 20260904061238 | 71 | 131 | 0.0 | 0.0 | 0.00 | 0.00 | 0.00 | 71 | 973.0 |
| 20260904060732 | 71 | 131 | 0.0 | 0.0 | 0.00 | 0.00 | 0.00 | 72 | 973.0 |
| 20260904055720 | 72 | 131 | 0.0 | 0.0 | 0.00 | 0.00 | 0.00 | 72 | 973.0 |
| 20260904055214 | 72 | 131 | 0.0 | 0.0 | 0.00 | 0.00 | 0.00 | 72 | 973.1 |
| 20260904054709 | 72 | 131 | 0.0 | 0.0 | 0.00 | 0.00 | 0.00 | 72 | 973.1 |
| 20260904053655 | 72 | 131 | 0.0 | 0.0 | 0.00 | 0.00 | 0.00 | 72 | 973.2 |
| 20260904052643 | 73 | 131 | 0.0 | 0.0 | 0.00 | 0.00 | 0.00 | 72 | 973.2 |
| 20260904052137 | 73 | 131 | 0.0 | 0.0 | 0.00 | 0.00 | 0.00 | 72 | 973.2 |
| 20260904051127 | 73 | 131 | 0.0 | 0.0 | 0.00 | 0.00 | 0.00 | 73 | 973.3 |